[[{"header":{"parameterUnit":"m.s-1","parameterCategory":1,"la1":30.2991,"la2":30.254,"lo1":-89.0895,"lo2":-89.0444,"dy":0.0017,"dx":0.0017,"nx":28,"ny":28,"refTime":"2024-06-26T21:00:00:Z","depth":0,"parameterNumber":2,"parameterNumberName":"U-component_of_WINDS"},"data":[0,0,0,0,0,0,0,0,0,0,0,0,0,0,0,0,0,0,0,0,0,0,0,0,0,0,0,0,0,0,0,0,0,0,0,0,0,0,0,0,0,0,0,0,0,0,0,0,0,0,0,0,0,0,0,0,0,0,4.8939,4.8941,0,4.9189,4.9192,4.9195,4.9192,4.9188,4.9185,4.9182,4.9444,4.9453,4.9463,0,0,0,0,0,0,0,0,0,0,0,0,0,4.846,4.8469,4.8938,4.8941,4.8945,4.9188,4.9192,4.9195,4.9192,4.9188,4.9184,4.918,4.944,4.9452,4.9464,0,0,0,0,0,0,0,0,0,0,0,0,0,4.8685,4.8472,4.8938,4.8972,4.8978,4.9188,4.9192,4.9196,4.9193,4.9188,4.9183,4.9178,4.9436,4.9451,4.9466,4.9659,0,0,4.9512,4.9519,0,0,0,0,0,0,0,0,4.8672,4.8703,4.8964,4.897,4.8977,4.9154,4.9119,4.9352,4.9194,4.9112,4.9182,4.9176,4.9352,4.9373,4.9431,4.9672,4.9683,4.9513,4.9523,4.9529,4.9533,0,0,0,0,0,0,0,4.8657,4.8692,4.9038,4.8968,4.8976,4.8976,4.9003,4.9163,4.9257,4.9118,4.9119,4.9148,4.9354,4.9417,4.9438,4.9687,4.9513,4.9526,4.9536,4.9542,5.0095,5.01,0,0,0,0,0,0,4.8634,4.8679,4.903,4.9045,4.8809,4.8989,4.9018,4.9102,4.9255,4.9273,4.9152,4.9147,4.9394,4.942,4.9447,4.9681,4.9529,4.9543,4.9552,5.0089,5.0096,5.0102,0,0,0,0,0,0,4.8623,4.8665,4.9019,4.8862,4.8907,4.9002,4.9097,4.911,4.9172,4.928,4.9297,4.9199,4.9391,4.9425,4.9605,4.969,4.955,4.9564,5.0083,5.0092,5.0099,5.0152,0,0,0,0,0,0,4.861,4.8661,4.8735,4.8864,4.8916,4.9173,4.9102,4.9118,4.9198,4.9194,4.9329,4.9346,4.9389,4.9583,4.962,4.9708,4.9576,5.0076,5.0087,5.0097,5.0143,5.0161,5.0177,0,0,0,0,0,4.8593,4.8742,4.8739,4.8781,4.901,4.9178,4.9208,4.9253,4.9205,4.928,4.9349,4.9342,4.9675,4.9601,4.9644,4.9737,5.0071,5.0084,5.0096,5.0136,5.0158,5.0176,0,0,0,0,0,0,4.8624,4.876,4.8758,4.8953,4.9054,4.9177,4.9274,4.9275,4.9393,4.9385,4.9437,4.9467,4.9646,4.971,4.9626,4.9931,4.9867,4.9889,4.9883,4.9904,4.9921,4.9901,4.9588,0,0,0,0,0,4.8653,4.8777,4.889,4.9051,4.9101,4.9179,4.9254,4.9279,4.9386,4.943,4.9512,4.9617,4.9745,4.9829,4.9953,5.0153,5.0181,5.0238,5.0254,5.0268,5.0286,5.0393,5.0419,5.0144,5.0144,5.0144,0,0,4.8716,4.8805,4.8881,4.9059,4.914,4.9268,4.9215,4.9353,4.9448,4.9451,4.9625,4.9689,4.981,4.9999,5.0087,5.0058,5.0368,5.0284,5.0293,5.0305,5.0409,5.0435,5.0458,5.0153,5.0151,5.015,0,0,4.8894,4.8975,4.9116,4.9197,4.9319,4.937,4.9403,4.9527,4.9568,4.9743,4.9747,4.9861,5.0082,5.0166,5.0239,5.0445,5.0443,5.0485,5.0572,5.0676,5.0698,5.0717,5.0789,5.0814,5.0502,5.0502,5.0503,0,4.8956,4.9147,4.919,4.9327,4.9405,4.9411,4.9554,4.9632,4.9789,4.9843,4.9808,5.0081,5.0164,5.0372,5.0422,5.0481,5.052,5.0469,5.0691,5.0711,5.073,5.0798,5.0825,5.0507,5.0506,5.0506,5.0505,0,4.9217,4.9349,4.9449,4.9597,4.9686,4.9827,4.989,4.9976,4.9993,5.0046,5.0223,5.0322,5.0464,5.0516,5.0535,5.0726,5.0704,5.068,5.0616,5.0759,5.0824,5.0851,5.0512,5.0511,5.051,5.0509,0,0,4.9423,4.959,4.9626,4.9692,4.9825,4.9929,5.0069,5.0205,5.0277,5.0385,5.0502,5.0687,5.0664,5.0745,5.0775,5.0866,5.102,5.083,5.0834,5.086,5.1234,5.125,5.128,5.102,5.1025,5.1029,5.1223,0,4.9614,4.9859,4.99,5.0116,5.0237,5.0244,5.0365,5.046,5.0514,5.0625,5.0685,5.0814,5.0775,5.0824,5.0915,5.0982,5.1096,5.0969,5.1129,5.1134,5.1097,5.1315,5.1333,5.1512,5.1249,5.1254,5.1257,0,4.9869,4.998,5.0207,5.032,5.0373,5.0481,5.0608,5.0715,5.0823,5.0855,5.0944,5.0962,5.1107,5.1037,5.1236,5.1149,5.1217,5.126,5.1268,5.1284,5.1203,5.1334,5.157,5.1596,5.1298,5.1295,5.1292,0,4.9994,5.02,5.0361,5.0418,5.0556,5.0631,5.0692,5.0795,5.0873,5.0985,5.1036,5.1165,5.1234,5.1333,5.1384,5.1329,5.158,5.1515,5.161,5.1609,5.1662,5.1658,5.191,5.1709,5.1708,5.1708,5.1707,0,5.0202,5.034,5.0418,5.0518,5.0672,5.0718,5.087,5.0929,5.102,5.1131,5.1146,5.125,5.1312,5.1425,5.1467,5.1624,5.1656,5.1686,5.1695,5.1684,5.168,5.1728,5.1716,5.1715,5.1714,5.1712,5.1711,0,5.0367,5.0425,5.0601,5.0716,5.0747,5.0856,5.0954,5.1051,5.1103,5.1243,5.1279,5.1361,5.1495,5.1555,5.1722,5.1749,5.1928,5.193,5.1891,5.1894,5.1984,5.1974,5.2275,5.2316,5.209,5.2092,5.2094,0,5.0494,5.06,5.0725,5.0798,5.0861,5.0981,5.106,5.1109,5.1191,5.1319,5.14,5.1533,5.1642,5.1856,5.1931,5.2057,5.2061,5.2158,5.208,5.2064,5.206,5.2052,5.2061,5.2171,5.2173,5.2175,5.2177,0,5.0714,5.0737,5.0849,5.0971,5.1064,5.1164,5.1261,5.1321,5.1385,5.1477,5.1611,5.1696,5.1863,5.1995,5.2126,5.219,5.2194,5.22,5.2229,5.2217,5.2189,5.2203,5.1927,5.2193,5.2192,5.219,5.2189,5.2189,5.0864,5.0956,5.1057,5.1181,5.1258,5.1348,5.1443,5.1505,5.1618,5.1756,5.1779,5.1922,5.2025,5.2201,5.2269,5.2382,5.2359,5.2401,5.2411,5.242,5.2424,5.2172,5.2407,5.2406,5.2406,5.2406,5.2405,0,5.1082,5.1146,5.1259,5.1393,5.149,5.1483,5.1589,5.1671,5.1797,5.1891,5.1997,5.2151,5.2278,5.2362,5.2491,5.2565,5.257,5.2597,5.2591,5.2605,5.2439,5.24,5.259,5.259,5.259,5.259,5.259,5.259,5.1207,5.1362,5.1396,5.159,5.1654,5.1792,5.1853,5.1936,5.2011,5.2181,5.2286,5.2338,5.2429,5.2563,5.2679,5.2701,5.2747,5.2774,5.2795,5.2637,5.2618,5.2599,5.2563,5.2784,5.2785,5.2952,5.2953,5.2954]},{"header":{"parameterUnit":"m.s-1","parameterCategory":1,"la1":30.2991,"la2":30.254,"lo1":-89.0895,"lo2":-89.0444,"dy":0.0017,"dx":0.0017,"nx":28,"ny":28,"refTime":"2024-06-26T21:00:00:Z","depth":0,"parameterNumber":3,"parameterNumberName":"V-component_of_WINDS"},"data":[0,0,0,0,0,0,0,0,0,0,0,0,0,0,0,0,0,0,0,0,0,0,0,0,0,0,0,0,0,0,0,0,0,0,0,0,0,0,0,0,0,0,0,0,0,0,0,0,0,0,0,0,0,0,0,0,0,0,1.8209,1.821,0,1.8254,1.8255,1.8255,1.8217,1.8216,1.8214,1.8213,1.8261,1.8264,1.8267,0,0,0,0,0,0,0,0,0,0,0,0,0,1.8093,1.8096,1.8209,1.821,1.821,1.8254,1.8255,1.8255,1.8217,1.8216,1.8214,1.8212,1.826,1.8264,1.8267,0,0,0,0,0,0,0,0,0,0,0,0,0,1.8142,1.8096,1.8209,1.8197,1.8196,1.8254,1.8255,1.8256,1.8218,1.8215,1.8213,1.8211,1.8259,1.8263,1.8267,1.8341,0,0,1.828,1.8282,0,0,0,0,0,0,0,0,1.8139,1.8146,1.8198,1.8198,1.8197,1.8228,1.8232,1.8284,1.8218,1.821,1.8212,1.821,1.8252,1.8257,1.827,1.8343,1.8345,1.828,1.8283,1.8285,1.8286,0,0,0,0,0,0,0,1.8136,1.8144,1.8227,1.8199,1.8198,1.819,1.8194,1.8241,1.8244,1.821,1.8208,1.8213,1.8251,1.8267,1.8271,1.8346,1.828,1.8284,1.8287,1.8288,1.8481,1.8484,0,0,0,0,0,0,1.8133,1.8141,1.8226,1.8228,1.8161,1.8194,1.8198,1.822,1.8243,1.8244,1.8215,1.8211,1.8261,1.8266,1.8273,1.8361,1.8285,1.8289,1.8291,1.8479,1.8482,1.8485,0,0,0,0,0,0,1.8131,1.8141,1.8224,1.8184,1.8194,1.8198,1.8223,1.8222,1.8237,1.8247,1.8247,1.823,1.8259,1.8267,1.8324,1.8362,1.829,1.8294,1.8476,1.848,1.8483,1.8537,0,0,0,0,0,0,1.8128,1.814,1.8168,1.8185,1.8196,1.8274,1.8225,1.8225,1.8244,1.824,1.8261,1.8262,1.8258,1.8318,1.8328,1.8366,1.8298,1.8472,1.8477,1.8482,1.8532,1.8542,1.8551,0,0,0,0,0,1.8124,1.8182,1.8169,1.818,1.8231,1.8276,1.8283,1.8275,1.8248,1.8276,1.8282,1.8262,1.8356,1.8324,1.8335,1.8375,1.847,1.8476,1.8482,1.8528,1.854,1.8551,0,0,0,0,0,0,1.817,1.8184,1.817,1.8235,1.8255,1.827,1.8305,1.8289,1.8317,1.8312,1.8302,1.8308,1.8368,1.8377,1.8342,1.8448,1.8409,1.8417,1.844,1.8452,1.8461,1.8458,1.8301,0,0,0,0,0,1.8187,1.8222,1.8233,1.8289,1.83,1.8301,1.832,1.8313,1.8333,1.8341,1.8351,1.8372,1.8407,1.843,1.8462,1.8533,1.8537,1.8566,1.8575,1.8583,1.8591,1.863,1.8643,1.8504,1.8504,1.8504,0,0,1.8225,1.8236,1.8259,1.8299,1.8313,1.8351,1.8308,1.8349,1.8377,1.8348,1.8402,1.841,1.8433,1.8498,1.8527,1.8507,1.863,1.8591,1.8597,1.8601,1.8637,1.8651,1.8662,1.8508,1.8508,1.8507,0,0,1.8311,1.8323,1.8372,1.8387,1.8408,1.8409,1.842,1.8437,1.8442,1.8496,1.8475,1.8508,1.8567,1.8584,1.8601,1.8694,1.8677,1.8705,1.8756,1.8794,1.8805,1.8814,1.8848,1.886,1.8712,1.8712,1.8712,0,1.8355,1.8409,1.8399,1.8442,1.8461,1.8435,1.8484,1.8499,1.8531,1.8545,1.8522,1.8596,1.8609,1.8678,1.8701,1.8714,1.8728,1.8703,1.8804,1.8813,1.8822,1.8854,1.8867,1.8716,1.8715,1.8715,1.8715,0,1.8462,1.8501,1.8538,1.8568,1.859,1.8636,1.8634,1.8658,1.8649,1.8651,1.8707,1.8722,1.8757,1.8773,1.8764,1.884,1.8828,1.8805,1.8765,1.8839,1.8869,1.8881,1.872,1.8719,1.8718,1.8717,0,0,1.858,1.8604,1.8617,1.8631,1.8653,1.8683,1.8728,1.8761,1.8782,1.8805,1.8843,1.8893,1.8872,1.8891,1.8884,1.8918,1.8991,1.889,1.8891,1.8909,1.9077,1.9095,1.9109,1.8979,1.8982,1.8984,1.9075,0,1.8668,1.8746,1.8738,1.8812,1.8848,1.8824,1.8863,1.8882,1.8885,1.8917,1.8921,1.8957,1.8926,1.8937,1.8969,1.8976,1.9025,1.8969,1.9016,1.9018,1.9012,1.9125,1.9144,1.9229,1.9087,1.9089,1.909,0,1.8781,1.8807,1.8885,1.8902,1.8916,1.8952,1.8982,1.9012,1.9032,1.9033,1.9054,1.9041,1.9087,1.9046,1.911,1.9072,1.9091,1.9097,1.91,1.9105,1.9059,1.9134,1.9256,1.9269,1.9109,1.9107,1.9106,0,1.886,1.8915,1.8968,1.898,1.9001,1.9027,1.9037,1.9054,1.9075,1.9101,1.9115,1.9147,1.9164,1.919,1.9186,1.9156,1.9252,1.921,1.9254,1.9255,1.9276,1.9275,1.9405,1.9287,1.9287,1.9287,1.9287,0,1.896,1.9009,1.9004,1.9037,1.9091,1.9082,1.9136,1.9143,1.9159,1.9194,1.9175,1.9208,1.9201,1.9234,1.9232,1.9286,1.9294,1.9296,1.9295,1.9298,1.9298,1.9311,1.9305,1.929,1.9289,1.9289,1.9288,0,1.9058,1.9056,1.9113,1.9128,1.9133,1.9172,1.9185,1.9216,1.9218,1.9262,1.9272,1.9276,1.9314,1.9313,1.9356,1.9355,1.9421,1.9413,1.9414,1.9413,1.9457,1.9454,1.9601,1.962,1.9489,1.949,1.9491,0,1.9121,1.9158,1.9177,1.9198,1.921,1.9245,1.9265,1.9258,1.928,1.9306,1.9335,1.9371,1.94,1.9462,1.9469,1.9502,1.9495,1.9544,1.95,1.9502,1.9497,1.9495,1.9499,1.9553,1.9555,1.9556,1.9557,0,1.9235,1.9233,1.9263,1.9293,1.9319,1.9342,1.9364,1.9383,1.9378,1.9404,1.9442,1.9465,1.9509,1.9545,1.9577,1.9588,1.9572,1.9571,1.9583,1.9587,1.9586,1.9588,1.9439,1.9567,1.9566,1.9566,1.9565,1.9565,1.9318,1.935,1.9368,1.9403,1.9418,1.9439,1.9469,1.9475,1.9507,1.9541,1.9535,1.9578,1.9598,1.9639,1.9653,1.9687,1.967,1.9688,1.9692,1.9697,1.9702,1.958,1.9693,1.9693,1.9693,1.9692,1.9692,0,1.9432,1.9442,1.9474,1.9504,1.9532,1.9513,1.9537,1.9561,1.9599,1.9619,1.9647,1.9691,1.9727,1.9736,1.9771,1.9796,1.979,1.9805,1.9804,1.9807,1.9715,1.9702,1.981,1.981,1.981,1.981,1.981,1.981,1.9494,1.9547,1.9547,1.9607,1.9617,1.9659,1.9674,1.9693,1.9709,1.9759,1.9788,1.9794,1.981,1.9845,1.9877,1.9879,1.9893,1.9911,1.9911,1.9825,1.9813,1.9802,1.9789,1.9914,1.9914,1.9999,2.0,2.0001]}]]